This is the latest recevied weather packets stored in our database for station/object K9UO. If no packets are shown the sender has not sent any weather packets the latest 10 day(s).
| Time | Temp. | Humidity | Pressure | Rain* | Wind** | Luminosity | Snow |
|---|---|---|---|---|---|---|---|
| 1777518905 | 8.89° C | 39% | 1013.7 hPa | 0 mm | - | - | - |
| 1777518002 | 8.89° C | 41% | 1013.6 hPa | 0 mm | - | - | - |
| 1777517201 | 8.89° C | 42% | 1013.7 hPa | 0 mm | - | - | - |
| 1777516252 | 9.44° C | 43% | 1013.6 hPa | 0 mm | - | - | - |
| 1777515347 | 9.44° C | 42% | 1013.6 hPa | 0 mm | - | - | - |
| 1777514443 | 10° C | 43% | 1013.4 hPa | 0 mm | - | - | - |
| 1777513539 | 10° C | 46% | 1013.2 hPa | 0 mm | - | - | - |
| 1777512634 | 10.56° C | 47% | 1013 hPa | 0 mm | - | - | - |
| 1777511741 | 10.56° C | 48% | 1012.8 hPa | 0 mm | - | - | - |
| 1777510825 | 10.56° C | 51% | 1012.6 hPa | 0 mm | - | - | - |
| 1777509921 | 11.11° C | 51% | 1012.4 hPa | 0 mm | - | - | - |
| 1777509026 | 11.11° C | 50% | 1012.3 hPa | 0 mm | - | - | - |
| 1777508128 | 11.67° C | 47% | 1012.2 hPa | 0 mm | - | - | - |
| 1777507208 | 11.67° C | 50% | 1012 hPa | 0 mm | - | - | - |
| 1777506305 | 12.78° C | 49% | 1011.8 hPa | 0 mm | - | - | - |
| 1777505458 | 12.78° C | 52% | 1011.6 hPa | 0 mm | - | - | - |
| 1777504554 | 13.33° C | 55% | 1011.4 hPa | 0 mm | - | - | - |
| 1777503650 | 13.89° C | 55% | 1011.4 hPa | 0 mm | - | - | - |
| 1777502746 | 13.89° C | 56% | 1011.2 hPa | 0 mm | - | - | - |
| 1777501841 | 13.89° C | 54% | 1011.2 hPa | 0 mm | - | - | - |
| 1777500936 | 14.44° C | 54% | 1011 hPa | 0 mm | - | - | - |
| 1777500032 | 14.44° C | 54% | 1010.8 hPa | 0 mm | - | - | - |
| 1777499127 | 13.89° C | 53% | 1010.8 hPa | 0 mm | - | - | - |
| 1777498223 | 14.44° C | 54% | 1010.6 hPa | 0 mm | - | - | - |
| 1777497331 | 14.44° C | 53% | 1010.5 hPa | 0 mm | - | - | - |
* Rain latest hour (hover to see other rain measurements)
** Current wind speed in m/s (hover to see current wind gust speed)